^^
Station Historical Data
Daily Summary for January 25, 2021 Units:  English    Metric   Both
Daily Weekly Monthly Yearly
  High: Low: Average:
Temperature: 32.4 °F 25.6 °F 28.4 °F
Dew Point: 24.4 °F 21.1 °F 22.8 °F
Humidity: 87% 69% 79%
Wind Speed: 6mph 0mph 2.3mph
Wind Gust: 10mph - -
Wind- - South
Pressure: 30.14 in 29.99 in -
Precipitation: 0.00 in    
 
 
Tabular Data for January 25, 2021
Time Temperature Dew Point Pressure Wind Wind Speed Wind Gust Humidity Rainfall Rate (Hourly) solar
00:00 27.1 °F 23.5 °F 30.11 in SSW 6 mph 6 mph 86% 0.00 in 0 W/m2
00:05 27.2 °F 23.6 °F 30.11 in SSW 6 mph 6 mph 86% 0.00 in 0 W/m2
00:10 27.2 °F 23.6 °F 30.11 in SW 6 mph 7 mph 86% 0.00 in 0 W/m2
00:15 27.2 °F 23.6 °F 30.11 in SSW 6 mph 7 mph 86% 0.00 in 0 W/m2
00:20 27.2 °F 23.3 °F 30.11 in SSW 6 mph 6 mph 85% 0.00 in 0 W/m2
00:25 27.2 °F 23.3 °F 30.10 in SSW 6 mph 6 mph 85% 0.00 in 0 W/m2
00:30 27.2 °F 23.6 °F 30.10 in SW 6 mph 6 mph 86% 0.00 in 0 W/m2
00:35 27.2 °F 23.6 °F 30.10 in SW 5 mph 7 mph 86% 0.00 in 0 W/m2
00:40 27.3 °F 23.7 °F 30.10 in SW 5 mph 5 mph 86% 0.00 in 0 W/m2
00:45 27.3 °F 23.4 °F 30.10 in SSW 4 mph 5 mph 85% 0.00 in 0 W/m2
00:50 27.3 °F 23.4 °F 30.10 in SW 3 mph 6 mph 85% 0.00 in 0 W/m2
00:55 27.4 °F 23.5 °F 30.10 in SW 4 mph 6 mph 85% 0.00 in 0 W/m2
01:00 27.3 °F 23.4 °F 30.10 in WSW 5 mph 6 mph 85% 0.00 in 0 W/m2
01:05 27.3 °F 23.4 °F 30.10 in SW 5 mph 6 mph 85% 0.00 in 0 W/m2
01:10 27.3 °F 23.4 °F 30.10 in SSW 4 mph 4 mph 85% 0.00 in 0 W/m2
01:15 27.3 °F 23.4 °F 30.09 in WSW 3 mph 4 mph 85% 0.00 in 0 W/m2
01:20 27.3 °F 23.7 °F 30.10 in WSW 3 mph 4 mph 86% 0.00 in 0 W/m2
01:25 27.4 °F 23.8 °F 30.10 in SW 3 mph 4 mph 86% 0.00 in 0 W/m2
01:30 27.4 °F 23.8 °F 30.10 in WSW 3 mph 7 mph 86% 0.00 in 0 W/m2
01:35 27.4 °F 23.8 °F 30.09 in WSW 4 mph 7 mph 86% 0.00 in 0 W/m2
01:40 27.4 °F 23.5 °F 30.10 in West 4 mph 4 mph 85% 0.00 in 0 W/m2
01:45 27.4 °F 23.5 °F 30.09 in SW 3 mph 4 mph 85% 0.00 in 0 W/m2
01:50 27.4 °F 23.5 °F 30.09 in WSW 4 mph 4 mph 85% 0.00 in 0 W/m2
01:55 27.5 °F 23.6 °F 30.09 in SW 3 mph 4 mph 85% 0.00 in 0 W/m2
02:00 27.5 °F 23.6 °F 30.09 in SW 3 mph 3 mph 85% 0.00 in 0 W/m2
02:05 27.6 °F 23.7 °F 30.09 in SW 3 mph 3 mph 85% 0.00 in 0 W/m2
02:10 27.5 °F 23.6 °F 30.09 in SSW 2 mph 2 mph 85% 0.00 in 0 W/m2
02:15 27.6 °F 23.7 °F 30.10 in WSW 3 mph 3 mph 85% 0.00 in 0 W/m2
02:20 27.6 °F 24 °F 30.10 in WSW 3 mph 4 mph 86% 0.00 in 0 W/m2
02:25 27.6 °F 23.7 °F 30.10 in SW 3 mph 4 mph 85% 0.00 in 0 W/m2
02:30 27.5 °F 23.6 °F 30.09 in SW 3 mph 3 mph 85% 0.00 in 0 W/m2
02:35 27.5 °F 23.6 °F 30.10 in SW 3 mph 3 mph 85% 0.00 in 0 W/m2
02:40 27.5 °F 23.6 °F 30.10 in WSW 3 mph 3 mph 85% 0.00 in 0 W/m2
02:45 27.6 °F 23.7 °F 30.10 in WSW 3 mph 3 mph 85% 0.00 in 0 W/m2
02:50 27.5 °F 23.6 °F 30.10 in SW 2 mph 4 mph 85% 0.00 in 0 W/m2
02:55 27.4 °F 23.5 °F 30.11 in West 2 mph 4 mph 85% 0.00 in 0 W/m2
03:00 27.5 °F 23.6 °F 30.10 in West 3 mph 3 mph 85% 0.00 in 0 W/m2
03:05 27.6 °F 23.7 °F 30.10 in WNW 3 mph 4 mph 85% 0.00 in 0 W/m2
03:10 27.5 °F 23.6 °F 30.10 in WSW 2 mph 3 mph 85% 0.00 in 0 W/m2
03:15 27.5 °F 23.6 °F 30.11 in South 2 mph 3 mph 85% 0.00 in 0 W/m2
03:20 27.5 °F 23.6 °F 30.11 in SW 3 mph 4 mph 85% 0.00 in 0 W/m2
03:25 27.6 °F 23.7 °F 30.11 in WSW 2 mph 4 mph 85% 0.00 in 0 W/m2
03:30 27.5 °F 23.6 °F 30.11 in West 2 mph 2 mph 85% 0.00 in 0 W/m2
03:35 27.5 °F 23.6 °F 30.11 in West 3 mph 7 mph 85% 0.00 in 0 W/m2
03:40 27.6 °F 23.4 °F 30.11 in West 3 mph 3 mph 84% 0.00 in 0 W/m2
03:45 27.5 °F 23.3 °F 30.12 in West 3 mph 3 mph 84% 0.00 in 0 W/m2
03:50 27.5 °F 23.3 °F 30.12 in West 3 mph 3 mph 84% 0.00 in 0 W/m2
03:55 27.5 °F 23.3 °F 30.12 in WSW 3 mph 3 mph 84% 0.00 in 0 W/m2
04:00 27.6 °F 23.4 °F 30.12 in West 3 mph 3 mph 84% 0.00 in 0 W/m2
04:05 27.5 °F 23.3 °F 30.12 in West 2 mph 3 mph 84% 0.00 in 0 W/m2
04:10 27.5 °F 23.3 °F 30.12 in WSW 2 mph 2 mph 84% 0.00 in 0 W/m2
04:15 27.5 °F 23.3 °F 30.12 in WSW 2 mph 3 mph 84% 0.00 in 0 W/m2
04:20 27.5 °F 23.3 °F 30.13 in WSW 2 mph 2 mph 84% 0.00 in 0 W/m2
04:25 27.4 °F 23.2 °F 30.13 in WSW 1 mph 2 mph 84% 0.00 in 0 W/m2
04:30 27.5 °F 23.3 °F 30.13 in WSW 2 mph 2 mph 84% 0.00 in 0 W/m2
04:35 27.4 °F 23.2 °F 30.12 in West 1 mph 3 mph 84% 0.00 in 0 W/m2
04:40 27.5 °F 23.3 °F 30.12 in WNW 1 mph 1 mph 84% 0.00 in 0 W/m2
04:45 27.4 °F 23.2 °F 30.13 in WNW 1 mph 1 mph 84% 0.00 in 0 W/m2
04:50 27.4 °F 23.2 °F 30.13 in West 2 mph 2 mph 84% 0.00 in 0 W/m2
04:55 27.4 °F 23.2 °F 30.14 in West 1 mph 2 mph 84% 0.00 in 0 W/m2
05:00 27.4 °F 23.2 °F 30.13 in WSW 1 mph 2 mph 84% 0.00 in 0 W/m2
05:05 27.4 °F 23.2 °F 30.13 in West 2 mph 2 mph 84% 0.00 in 0 W/m2
05:10 27.4 °F 23.2 °F 30.13 in NNW 2 mph 2 mph 84% 0.00 in 0 W/m2
05:15 27.4 °F 23.2 °F 30.13 in NW 1 mph 2 mph 84% 0.00 in 0 W/m2
05:20 27.4 °F 23.2 °F 30.13 in NW 1 mph 1 mph 84% 0.00 in 0 W/m2
05:25 27.4 °F 23.2 °F 30.13 in NW 1 mph 2 mph 84% 0.00 in 0 W/m2
05:30 27.4 °F 23.2 °F 30.13 in NW 1 mph 1 mph 84% 0.00 in 0 W/m2
05:35 27.4 °F 23.2 °F 30.12 in Calm   1 mph 84% 0.00 in 0 W/m2
05:40 27.4 °F 23.2 °F 30.11 in Calm   1 mph 84% 0.00 in 0 W/m2
05:45 27.5 °F 23.3 °F 30.11 in WNW 1 mph 1 mph 84% 0.00 in 0 W/m2
05:50 27.5 °F 23.6 °F 30.11 in WNW 1 mph 1 mph 85% 0.00 in 0 W/m2
05:55 27.4 °F 23.5 °F 30.12 in WNW 1 mph 3 mph 85% 0.00 in 0 W/m2
06:00 27.4 °F 23.5 °F 30.11 in WNW 1 mph 1 mph 85% 0.00 in 0 W/m2
06:05 27.4 °F 23.5 °F 30.11 in NNW 1 mph 1 mph 85% 0.00 in 0 W/m2
06:10 27.5 °F 23.6 °F 30.11 in NNW 1 mph 1 mph 85% 0.00 in 0 W/m2
06:15 27.5 °F 23.6 °F 30.11 in NNW 1 mph 1 mph 85% 0.00 in 0 W/m2
06:20 27.5 °F 23.6 °F 30.10 in NNW 1 mph 1 mph 85% 0.00 in 0 W/m2
06:25 27.5 °F 23.6 °F 30.10 in ENE 1 mph 1 mph 85% 0.00 in 0 W/m2
06:30 27.4 °F 23.5 °F 30.10 in ENE 1 mph 1 mph 85% 0.00 in 0 W/m2
06:35 27.4 °F 23.5 °F 30.10 in ENE 1 mph 1 mph 85% 0.00 in 0 W/m2
06:40 27.4 °F 23.5 °F 30.10 in NNW 1 mph 1 mph 85% 0.00 in 0 W/m2
06:45 27.4 °F 23.5 °F 30.10 in NNW 1 mph 2 mph 85% 0.00 in 0 W/m2
06:50 27.2 °F 23.3 °F 30.09 in NNW 1 mph 1 mph 85% 0.00 in 0 W/m2
06:55 27.2 °F 23.3 °F 30.10 in NNW 1 mph 1 mph 85% 0.00 in 0 W/m2
07:00 27.1 °F 23.2 °F 30.11 in Calm     85% 0.00 in 0 W/m2
07:05 27.1 °F 23.2 °F 30.10 in Calm   1 mph 85% 0.00 in 0 W/m2
07:10 27.1 °F 23.5 °F 30.11 in NNW 1 mph 1 mph 86% 0.00 in 0 W/m2
07:15 27.1 °F 23.5 °F 30.11 in NNW 1 mph 1 mph 86% 0.00 in 0 W/m2
07:20 27.1 °F 23.5 °F 30.10 in NNW 1 mph 2 mph 86% 0.00 in 0 W/m2
07:25 27.1 °F 23.5 °F 30.10 in NNW 1 mph 2 mph 86% 0.00 in 0 W/m2
07:30 27 °F 23.4 °F 30.09 in NNW 1 mph 1 mph 86% 0.00 in 0 W/m2
07:35 26.9 °F 23.3 °F 30.09 in NNW 1 mph 1 mph 86% 0.00 in 0 W/m2
07:40 26.9 °F 23.3 °F 30.09 in Calm     86% 0.00 in 0 W/m2
07:45 26.8 °F 23.2 °F 30.09 in Calm   1 mph 86% 0.00 in 0 W/m2
07:50 26.7 °F 23.1 °F 30.09 in Calm     86% 0.00 in 0 W/m2
07:55 26.6 °F 23 °F 30.10 in Calm     86% 0.00 in 5 W/m2
08:00 26.5 °F 22.9 °F 30.10 in Calm     86% 0.00 in 7 W/m2
08:05 26.4 °F 22.8 °F 30.10 in Calm     86% 0.00 in 9 W/m2
08:10 26.2 °F 22.6 °F 30.11 in Calm     86% 0.00 in 14 W/m2
08:15 26.1 °F 22.5 °F 30.11 in Calm   1 mph 86% 0.00 in 18 W/m2
08:20 26 °F 22.4 °F 30.11 in NNW 1 mph 1 mph 86% 0.00 in 21 W/m2
08:25 25.9 °F 22.3 °F 30.11 in Calm   1 mph 86% 0.00 in 26 W/m2
08:30 25.8 °F 22.2 °F 30.11 in Calm     86% 0.00 in 30 W/m2
08:35 25.7 °F 22.1 °F 30.12 in Calm     86% 0.00 in 33 W/m2
08:40 25.6 °F 22 °F 30.12 in Calm     86% 0.00 in 37 W/m2
08:45 25.6 °F 22.3 °F 30.13 in Calm     87% 0.00 in 42 W/m2
08:50 25.6 °F 22.3 °F 30.13 in Calm     87% 0.00 in 49 W/m2
08:55 25.7 °F 22.4 °F 30.13 in Calm   2 mph 87% 0.00 in 72 W/m2
09:00 25.8 °F 22.5 °F 30.13 in NNW 1 mph 1 mph 87% 0.00 in 84 W/m2
09:05 26.1 °F 22.8 °F 30.13 in NNW 1 mph 1 mph 87% 0.00 in 93 W/m2
09:10 26.9 °F 23.5 °F 30.12 in NNW 1 mph 1 mph 87% 0.00 in 102 W/m2
09:15 27.4 °F 24 °F 30.12 in Calm   1 mph 87% 0.00 in 79 W/m2
09:20 27.8 °F 24.2 °F 30.12 in North 1 mph 3 mph 86% 0.00 in 91 W/m2
09:25 28.3 °F 24.4 °F 30.12 in NNE 2 mph 3 mph 85% 0.00 in 102 W/m2
09:30 28.6 °F 23.8 °F 30.11 in North 2 mph 3 mph 82% 0.00 in 84 W/m2
09:35 28.5 °F 23.1 °F 30.10 in North 3 mph 3 mph 80% 0.00 in 88 W/m2
09:40 28.4 °F 23 °F 30.10 in NNW 2 mph 2 mph 80% 0.00 in 102 W/m2
09:45 28.2 °F 22.8 °F 30.10 in North 1 mph 2 mph 80% 0.00 in 105 W/m2
09:50 28.5 °F 23.1 °F 30.10 in NNW 2 mph 4 mph 80% 0.00 in 121 W/m2
09:55 28.8 °F 23.1 °F 30.11 in North 2 mph 4 mph 79% 0.00 in 139 W/m2
10:00 29 °F 23 °F 30.12 in NNW 3 mph 3 mph 78% 0.00 in 178 W/m2
10:05 29.2 °F 23.2 °F 30.13 in NW 3 mph 4 mph 78% 0.00 in 146 W/m2
10:10 29 °F 23 °F 30.14 in North 4 mph 4 mph 78% 0.00 in 130 W/m2
10:15 28.9 °F 22.9 °F 30.14 in NNW 4 mph 4 mph 78% 0.00 in 139 W/m2
10:20 28.7 °F 22.7 °F 30.14 in NNW 3 mph 3 mph 78% 0.00 in 156 W/m2
10:25 28.8 °F 22.5 °F 30.14 in North 3 mph 5 mph 77% 0.00 in 167 W/m2
10:30 28.8 °F 22.5 °F 30.13 in North 4 mph 4 mph 77% 0.00 in 160 W/m2
10:35 28.7 °F 22.4 °F 30.13 in NNW 4 mph 6 mph 77% 0.00 in 172 W/m2
10:40 28.6 °F 22 °F 30.13 in NNW 4 mph 4 mph 76% 0.00 in 176 W/m2
10:45 28.7 °F 22.1 °F 30.12 in North 4 mph 4 mph 76% 0.00 in 178 W/m2
10:50 28.7 °F 22.1 °F 30.12 in North 3 mph 3 mph 76% 0.00 in 197 W/m2
10:55 28.9 °F 22.3 °F 30.12 in North 1 mph 3 mph 76% 0.00 in 186 W/m2
11:00 28.7 °F 22.4 °F 30.12 in NNE 2 mph 3 mph 77% 0.00 in 190 W/m2
11:05 28.8 °F 22.5 °F 30.12 in NNE 2 mph 5 mph 77% 0.00 in 209 W/m2
11:10 28.8 °F 21.9 °F 30.12 in North 2 mph 2 mph 75% 0.00 in 255 W/m2
11:15 29.2 °F 22.6 °F 30.12 in NE 2 mph 6 mph 76% 0.00 in 267 W/m2
11:20 29.2 °F 22.6 °F 30.12 in North 2 mph 3 mph 76% 0.00 in 206 W/m2
11:25 29 °F 22.4 °F 30.12 in North 3 mph 3 mph 76% 0.00 in 236 W/m2
11:30 29.2 °F 22.3 °F 30.12 in NNW 3 mph 4 mph 75% 0.00 in 269 W/m2
11:35 29.2 °F 22.3 °F 30.12 in North 2 mph 4 mph 75% 0.00 in 258 W/m2
11:40 29.3 °F 22.4 °F 30.11 in North 3 mph 3 mph 75% 0.00 in 255 W/m2
11:45 29.3 °F 22.4 °F 30.12 in NE 3 mph 3 mph 75% 0.00 in 276 W/m2
11:50 29.4 °F 21.8 °F 30.12 in NE 3 mph 5 mph 73% 0.00 in 257 W/m2
11:55 29.4 °F 21.8 °F 30.11 in NNE 2 mph 5 mph 73% 0.00 in 246 W/m2
12:00 29.6 °F 22 °F 30.11 in NNE 3 mph 3 mph 73% 0.00 in 278 W/m2
12:05 29.9 °F 22.3 °F 30.11 in NNE 2 mph 3 mph 73% 0.00 in 260 W/m2
12:10 29.9 °F 22.3 °F 30.11 in North 2 mph 2 mph 73% 0.00 in 334 W/m2
12:15 30.1 °F 22.2 °F 30.11 in NNW 2 mph 3 mph 72% 0.00 in 330 W/m2
12:20 30.3 °F 22.7 °F 30.11 in North 2 mph 4 mph 73% 0.00 in 346 W/m2
12:25 30.4 °F 22.1 °F 30.11 in North 2 mph 4 mph 71% 0.00 in 297 W/m2
12:30 30.3 °F 22.4 °F 30.11 in North 2 mph 2 mph 72% 0.00 in 304 W/m2
12:35 30.4 °F 22.1 °F 30.10 in NE 2 mph 3 mph 71% 0.00 in 302 W/m2
12:40 30.4 °F 22.1 °F 30.10 in North 2 mph 2 mph 71% 0.00 in 269 W/m2
12:45 30.5 °F 22.5 °F 30.10 in North 2 mph 2 mph 72% 0.00 in 352 W/m2
12:50 30.8 °F 22.5 °F 30.10 in North 1 mph 1 mph 71% 0.00 in 359 W/m2
12:55 31 °F 23 °F 30.09 in North 2 mph 2 mph 72% 0.00 in 309 W/m2
13:00 31 °F 22.7 °F 30.09 in North 2 mph 4 mph 71% 0.00 in 352 W/m2
13:05 30.8 °F 22.8 °F 30.08 in North 2 mph 4 mph 72% 0.00 in 387 W/m2
13:10 30.8 °F 22.2 °F 30.08 in NNE 2 mph 2 mph 70% 0.00 in 334 W/m2
13:15 31 °F 22.4 °F 30.08 in NNE 2 mph 2 mph 70% 0.00 in 278 W/m2
13:20 31.1 °F 22.8 °F 30.09 in NNE 2 mph 2 mph 71% 0.00 in 341 W/m2
13:25 31.2 °F 22.5 °F 30.09 in NNE 2 mph 2 mph 70% 0.00 in 304 W/m2
13:30 31.1 °F 22.5 °F 30.09 in North 2 mph 2 mph 70% 0.00 in 330 W/m2
13:35 31.5 °F 22.8 °F 30.08 in North 2 mph 2 mph 70% 0.00 in 292 W/m2
13:40 31.6 °F 22.9 °F 30.08 in North 2 mph 2 mph 70% 0.00 in 241 W/m2
13:45 31.4 °F 22.7 °F 30.08 in North 2 mph 3 mph 70% 0.00 in 225 W/m2
13:50 31.2 °F 22.9 °F 30.08 in NNE 2 mph 2 mph 71% 0.00 in 190 W/m2
13:55 30.7 °F 22.4 °F 30.07 in East 1 mph 2 mph 71% 0.00 in 216 W/m2
14:00 30.8 °F 22.8 °F 30.06 in North 1 mph 1 mph 72% 0.00 in 255 W/m2
14:05 30.9 °F 22.9 °F 30.05 in North 2 mph 2 mph 72% 0.00 in 230 W/m2
14:10 30.7 °F 23.1 °F 30.05 in North 2 mph 2 mph 73% 0.00 in 223 W/m2
14:15 30.6 °F 23 °F 30.05 in NNE 2 mph 2 mph 73% 0.00 in 250 W/m2
14:20 30.7 °F 23.1 °F 30.04 in North 2 mph 3 mph 73% 0.00 in 257 W/m2
14:25 30.9 °F 22.9 °F 30.04 in NNE 2 mph 3 mph 72% 0.00 in 214 W/m2
14:30 31.2 °F 23.2 °F 30.04 in NNE 2 mph 2 mph 72% 0.00 in 111 W/m2
14:35 31.2 °F 23.2 °F 30.05 in NNE 3 mph 3 mph 72% 0.00 in 137 W/m2
14:40 31 °F 23 °F 30.05 in NNE 3 mph 3 mph 72% 0.00 in 155 W/m2
14:45 31 °F 23 °F 30.05 in North 2 mph 3 mph 72% 0.00 in 260 W/m2
14:50 31.4 °F 23.4 °F 30.06 in NNW 2 mph 2 mph 72% 0.00 in 181 W/m2
14:55 31.3 °F 23.3 °F 30.07 in NNW 2 mph 2 mph 72% 0.00 in 200 W/m2
15:00 31.7 °F 23.4 °F 30.07 in North 2 mph 2 mph 71% 0.00 in 251 W/m2
15:05 32 °F 23.3 °F 30.07 in North 2 mph 2 mph 70% 0.00 in 232 W/m2
15:10 32.4 °F 23.7 °F 30.07 in North 2 mph 2 mph 70% 0.00 in 148 W/m2
15:15 31.7 °F 22.7 °F 30.08 in North 2 mph 2 mph 69% 0.00 in 199 W/m2
15:20 31.4 °F 22.7 °F 30.08 in North 2 mph 2 mph 70% 0.00 in 199 W/m2
15:25 31.2 °F 22.9 °F 30.08 in North 2 mph 2 mph 71% 0.00 in 188 W/m2
15:30 31 °F 22.7 °F 30.07 in North 2 mph 3 mph 71% 0.00 in 148 W/m2
15:35 30.9 °F 22.6 °F 30.08 in NNW 2 mph 3 mph 71% 0.00 in 130 W/m2
15:40 30.4 °F 22.4 °F 30.07 in NNW 2 mph 2 mph 72% 0.00 in 130 W/m2
15:45 30.2 °F 22.6 °F 30.07 in NNW 1 mph 2 mph 73% 0.00 in 116 W/m2
15:50 30.2 °F 22.6 °F 30.07 in NNW 1 mph 2 mph 73% 0.00 in 120 W/m2
15:55 29.9 °F 22.3 °F 30.07 in ENE 1 mph 2 mph 73% 0.00 in 113 W/m2
16:00 30 °F 22.7 °F 30.07 in ENE 1 mph 1 mph 74% 0.00 in 107 W/m2
16:05 29.9 °F 22.9 °F 30.06 in ENE 1 mph 1 mph 75% 0.00 in 90 W/m2
16:10 29.7 °F 23.1 °F 30.06 in NE 1 mph 1 mph 76% 0.00 in 88 W/m2
16:15 29.5 °F 22.9 °F 30.06 in NNE 1 mph 1 mph 76% 0.00 in 84 W/m2
16:20 29.3 °F 22.7 °F 30.06 in ENE 1 mph 1 mph 76% 0.00 in 77 W/m2
16:25 29.2 °F 22.9 °F 30.06 in ENE 1 mph 2 mph 77% 0.00 in 77 W/m2
16:30 29 °F 22.7 °F 30.05 in NE 1 mph 1 mph 77% 0.00 in 77 W/m2
16:35 28.9 °F 22.3 °F 30.06 in NE 1 mph 1 mph 76% 0.00 in 67 W/m2
16:40 28.8 °F 22.2 °F 30.05 in ENE 2 mph 2 mph 76% 0.00 in 60 W/m2
16:45 28.7 °F 22.1 °F 30.05 in ENE 2 mph 2 mph 76% 0.00 in 53 W/m2
16:50 28.7 °F 22.4 °F 30.06 in ENE 1 mph 1 mph 77% 0.00 in 40 W/m2
16:55 28.6 °F 22.3 °F 30.06 in ENE 1 mph 1 mph 77% 0.00 in 32 W/m2
17:00 28.5 °F 22.2 °F 30.05 in ENE 1 mph 1 mph 77% 0.00 in 23 W/m2
17:05 28.3 °F 22.3 °F 30.05 in ENE 1 mph 1 mph 78% 0.00 in 25 W/m2
17:10 28.2 °F 22.2 °F 30.05 in ESE 1 mph 1 mph 78% 0.00 in 25 W/m2
17:15 28.2 °F 22.2 °F 30.06 in ESE 1 mph 1 mph 78% 0.00 in 18 W/m2
17:20 28.3 °F 22.3 °F 30.06 in ESE 1 mph 1 mph 78% 0.00 in 14 W/m2
17:25 28.3 °F 22.3 °F 30.05 in ENE 1 mph 2 mph 78% 0.00 in 9 W/m2
17:30 28.2 °F 22.2 °F 30.05 in NE 2 mph 2 mph 78% 0.00 in 5 W/m2
17:35 28 °F 22.3 °F 30.05 in NE 2 mph 2 mph 79% 0.00 in 0 W/m2
17:40 28 °F 22.3 °F 30.05 in ENE 2 mph 2 mph 79% 0.00 in 0 W/m2
17:45 28.1 °F 22.1 °F 30.05 in ENE 2 mph 3 mph 78% 0.00 in 0 W/m2
17:50 28 °F 22 °F 30.05 in ENE 2 mph 2 mph 78% 0.00 in 0 W/m2
17:55 27.9 °F 22.2 °F 30.05 in NE 2 mph 2 mph 79% 0.00 in 0 W/m2
18:00 27.8 °F 22.1 °F 30.05 in ENE 2 mph 3 mph 79% 0.00 in 0 W/m2
18:05 27.8 °F 21.8 °F 30.05 in NE 2 mph 3 mph 78% 0.00 in 0 W/m2
18:10 27.8 °F 21.8 °F 30.05 in ENE 2 mph 3 mph 78% 0.00 in 0 W/m2
18:15 27.9 °F 21.9 °F 30.06 in NE 2 mph 3 mph 78% 0.00 in 0 W/m2
18:20 27.9 °F 21.6 °F 30.05 in North 3 mph 3 mph 77% 0.00 in 0 W/m2
18:25 27.9 °F 21.6 °F 30.05 in ENE 3 mph 5 mph 77% 0.00 in 0 W/m2
18:30 27.9 °F 21.3 °F 30.05 in ENE 3 mph 4 mph 76% 0.00 in 0 W/m2
18:35 27.9 °F 21.3 °F 30.06 in NE 3 mph 4 mph 76% 0.00 in 0 W/m2
18:40 27.9 °F 21.3 °F 30.05 in East 2 mph 2 mph 76% 0.00 in 0 W/m2
18:45 27.9 °F 21.3 °F 30.05 in ENE 2 mph 2 mph 76% 0.00 in 0 W/m2
18:50 28 °F 21.1 °F 30.05 in North 2 mph 2 mph 75% 0.00 in 0 W/m2
18:55 28 °F 21.1 °F 30.05 in NNE 2 mph 2 mph 75% 0.00 in 0 W/m2
19:00 28 °F 21.1 °F 30.04 in NNE 2 mph 3 mph 75% 0.00 in 0 W/m2
19:05 28 °F 21.1 °F 30.04 in North 2 mph 3 mph 75% 0.00 in 0 W/m2
19:10 28.1 °F 21.2 °F 30.05 in North 2 mph 2 mph 75% 0.00 in 0 W/m2
19:15 28.1 °F 21.2 °F 30.05 in ENE 2 mph 3 mph 75% 0.00 in 0 W/m2
19:20 28.1 °F 21.5 °F 30.05 in ENE 3 mph 3 mph 76% 0.00 in 0 W/m2
19:25 28.2 °F 21.6 °F 30.05 in ENE 3 mph 5 mph 76% 0.00 in 0 W/m2
19:30 28.2 °F 21.6 °F 30.05 in ENE 3 mph 3 mph 76% 0.00 in 0 W/m2
19:35 28.2 °F 21.9 °F 30.05 in NE 3 mph 3 mph 77% 0.00 in 0 W/m2
19:40 28.1 °F 21.8 °F 30.06 in NNE 3 mph 3 mph 77% 0.00 in 0 W/m2
19:45 28.1 °F 21.8 °F 30.05 in ENE 2 mph 4 mph 77% 0.00 in 0 W/m2
19:50 28.1 °F 21.8 °F 30.05 in North 3 mph 3 mph 77% 0.00 in 0 W/m2
19:55 28 °F 21.7 °F 30.05 in NNE 3 mph 4 mph 77% 0.00 in 0 W/m2
20:05 28 °F 22 °F 30.05 in NE 2 mph 7 mph 78% 0.00 in 0 W/m2
20:10 28 °F 22 °F 30.05 in East 2 mph 5 mph 78% 0.00 in 0 W/m2
20:15 28.1 °F 22.1 °F 30.06 in ENE 3 mph 5 mph 78% 0.00 in 0 W/m2
20:20 28.2 °F 22.2 °F 30.06 in NE 3 mph 3 mph 78% 0.00 in 0 W/m2
20:25 28.2 °F 22.2 °F 30.06 in ENE 3 mph 4 mph 78% 0.00 in 0 W/m2
20:30 28.3 °F 22.3 °F 30.05 in NE 4 mph 4 mph 78% 0.00 in 0 W/m2
20:35 28.3 °F 22 °F 30.06 in NE 3 mph 5 mph 77% 0.00 in 0 W/m2
20:40 28.3 °F 22 °F 30.06 in ENE 3 mph 4 mph 77% 0.00 in 0 W/m2
20:45 28.4 °F 22.1 °F 30.05 in NE 3 mph 4 mph 77% 0.00 in 0 W/m2
20:50 28.3 °F 22 °F 30.06 in ENE 3 mph 4 mph 77% 0.00 in 0 W/m2
20:55 28.3 °F 21.7 °F 30.05 in ENE 2 mph 4 mph 76% 0.00 in 0 W/m2
21:00 28.3 °F 21.7 °F 30.04 in ENE 3 mph 3 mph 76% 0.00 in 0 W/m2
21:05 28.4 °F 22.1 °F 30.04 in ENE 3 mph 5 mph 77% 0.00 in 0 W/m2
21:10 28.3 °F 22 °F 30.03 in NE 3 mph 3 mph 77% 0.00 in 0 W/m2
21:15 28.4 °F 21.8 °F 30.03 in ENE 3 mph 3 mph 76% 0.00 in 0 W/m2
21:20 28.4 °F 22.1 °F 30.04 in ENE 3 mph 3 mph 77% 0.00 in 0 W/m2
21:25 28.4 °F 22.1 °F 30.03 in East 3 mph 6 mph 77% 0.00 in 0 W/m2
21:30 28.4 °F 22.1 °F 30.03 in NE 3 mph 4 mph 77% 0.00 in 0 W/m2
21:35 28.3 °F 22 °F 30.04 in East 3 mph 4 mph 77% 0.00 in 0 W/m2
21:40 28.4 °F 22.1 °F 30.04 in East 4 mph 10 mph 77% 0.00 in 0 W/m2
21:45 28.4 °F 22.4 °F 30.03 in ENE 3 mph 10 mph 78% 0.00 in 0 W/m2
21:50 28.4 °F 22.1 °F 30.03 in East 3 mph 3 mph 77% 0.00 in 0 W/m2
21:55 28.4 °F 21.8 °F 30.03 in ENE 4 mph 4 mph 76% 0.00 in 0 W/m2
22:00 28.4 °F 22.1 °F 30.03 in ENE 4 mph 4 mph 77% 0.00 in 0 W/m2
22:05 28.4 °F 22.1 °F 30.03 in NE 3 mph 4 mph 77% 0.00 in 0 W/m2
22:10 28.4 °F 22.1 °F 30.03 in East 3 mph 3 mph 77% 0.00 in 0 W/m2
22:15 28.4 °F 22.1 °F 30.02 in ENE 3 mph 3 mph 77% 0.00 in 0 W/m2
22:20 28.4 °F 22.1 °F 30.02 in East 3 mph 3 mph 77% 0.00 in 0 W/m2
22:25 28.4 °F 22.4 °F 30.01 in ENE 4 mph 5 mph 78% 0.00 in 0 W/m2
22:30 28.4 °F 22.1 °F 30.01 in ENE 4 mph 4 mph 77% 0.00 in 0 W/m2
22:35 28.4 °F 22.1 °F 30.01 in NE 4 mph 4 mph 77% 0.00 in 0 W/m2
22:40 28.5 °F 22.5 °F 30.01 in NE 4 mph 5 mph 78% 0.00 in 0 W/m2
22:45 28.5 °F 22.5 °F 30.00 in NNE 4 mph 5 mph 78% 0.00 in 0 W/m2
22:50 28.5 °F 22.5 °F 30.00 in NE 4 mph 4 mph 78% 0.00 in 0 W/m2
22:55 28.5 °F 22.5 °F 29.99 in ENE 4 mph 5 mph 78% 0.00 in 0 W/m2
23:00 28.6 °F 22.6 °F 30.00 in ENE 4 mph 5 mph 78% 0.00 in 0 W/m2
23:05 28.6 °F 22.6 °F 30.00 in ENE 5 mph 5 mph 78% 0.00 in 0 W/m2
23:10 28.7 °F 22.7 °F 30.00 in ENE 5 mph 5 mph 78% 0.00 in 0 W/m2
23:15 28.8 °F 22.8 °F 29.99 in ENE 4 mph 5 mph 78% 0.00 in 0 W/m2
23:20 28.8 °F 22.8 °F 29.99 in NNE 4 mph 5 mph 78% 0.00 in 0 W/m2
23:25 28.8 °F 22.8 °F 29.99 in NE 4 mph 5 mph 78% 0.00 in 0 W/m2
23:30 28.9 °F 22.9 °F 29.99 in ENE 4 mph 4 mph 78% 0.00 in 0 W/m2
23:35 28.9 °F 22.9 °F 30.00 in ENE 4 mph 4 mph 78% 0.00 in 0 W/m2
23:40 29 °F 23.3 °F 30.00 in ENE 3 mph 5 mph 79% 0.00 in 0 W/m2
23:45 29 °F 23.3 °F 29.99 in ENE 3 mph 5 mph 79% 0.00 in 0 W/m2
23:50 29 °F 23.3 °F 29.99 in NE 4 mph 5 mph 79% 0.00 in 0 W/m2
23:55 29 °F 23 °F 29.99 in ENE 4 mph 5 mph 78% 0.00 in 0 W/m2
Sand Point, Michigan, USA
Compliments of Weather Underground - 2 mb